Location: Azul
(36.7830°S, 59.8500°W)
Time: 09:52:03
(UTC-03:00)

ISS - Pass Details

Date: 15 December 2017
Orbit: 402 x 406 km, 51.6° (Epoch: 16 December)

Event Time Altitude Azimuth Distance (km) Brightness Sun altitude
Exits shadow 02:11:14 10° 215° (SW) 1,470 -0.6 -27.3°
Maximum altitude 02:12:06 11° 200° (SSW) 1,426 -0.5 -27.2°
Drops below altitude 10° 02:13:06 10° 182° (S) 1,487 -0.1 -27.1°
Sets 02:16:35 0° 144° (SE) 2,354 1.2 -26.9°
